Regional Weather Roundup
Issued by NWS

Home | Current Version | Previous Version | Graphics & Text | Print | Product List | Glossary On
Versions: 1 2 3 4 5 6 7 8 9 10 11 12 13 14 15 16 17 18 19 20 21 22 23 24 25 26 27 28 29 30 31 32 33 34 35 36 37 38 39 40 41 42 43 44 45 46 47 48 49 50
000
ASUS45 KPSR 251400
RWRAZ

PRELIMINARY ARIZONA REGIONAL HOURLY WEATHER ROUNDUP
NATIONAL WEATHER SERVICE PHOENIX AZ
700 AM MST SUN JAN 25 2015

NOTE: FAIR INDICATES FEW OR NO CLOUDS BELOW 12,000 FEET WITH NO
SIGNIFICANT WEATHER AND/OR OBSTRUCTIONS TO VISIBILITY.

AZZ001>003-036-251500-
NORTHWEST ARIZONA

CITY           SKY/WX    TMP DP  RH WIND       PRES   REMARKS
KINGMAN        CLEAR     38  21  50 NE5       30.25R WCI  34
$$

AZZ004>008-015-016-018-251500-
NORTH CENTRAL ARIZONA

CITY           SKY/WX    TMP DP  RH WIND       PRES   REMARKS
GRAND CANYON   PTCLDY    33  21  61 NE9       30.34R WCI  25
PRESCOTT       PTCLDY    29  16  58 SW5       30.25S WCI  24
FLAGSTAFF      NOT AVBL
PAYSON         CLEAR     43  14  31 CALM      30.25R
$$

AZZ009>014-017-251500-
NORTHEAST ARIZONA

CITY           SKY/WX    TMP DP  RH WIND       PRES   REMARKS
WINSLOW        NOT AVBL
SAINT JOHNS    CLEAR     18  15  88 SW3       30.30R
WINDOW ROCK    CLEAR     25  16  68 W3        30.31R
$$

AZZ023-251500-
GREATER PHOENIX AREA

CITY           SKY/WX    TMP DP  RH WIND       PRES   REMARKS
PHOENIX        PTCLDY    53  22  29 NE8       30.08R
GLENDALE       PTCLDY    43  27  52 CALM      30.10
LUKE AFB       NOT AVBL
DEER VALLEY    CLEAR     51  18  27 E7        30.09R
SCOTTSDALE     CLEAR     46  24  42 N3        30.11R
MESA-FALCON    PTCLDY    52  18  25 NE7       30.10R
MESA-GATEWAY   PTCLDY    39  21  48 E9        30.11R WCI  33
CHANDLER       PTCLDY    41  28  60 VRB5      30.10R
$$

AZZ027-028-251500-
SOUTHWEST MARICOPA COUNTY AND PINAL COUNTY

CITY           SKY/WX    TMP DP  RH WIND       PRES   REMARKS
CASA GRANDE    MOCLDY    52  18  25 E5        30.10S
GILA BEND      FAIR      48  16  27 E5        30.07R
$$

AZZ503-504-507>509-251500-
SOUTHEAST ARIZONA

CITY           SKY/WX    TMP DP  RH WIND       PRES   REMARKS
TUCSON         MOCLDY    50  11  20 E8        30.13R
DAVIS-MONTHAN  CLOUDY    51  11  19 SE13      30.11R
RYAN FIELD       N/A     43  23  45 SE5       30.12R
NOGALES        CLOUDY    45  16  31 NE6       30.13R
SIERRA VISTA   CLOUDY    40  17  39 E3        30.16S
SAFFORD        MOCLDY    35  19  52 E5        30.21R WCI  31
$$

AZZ020-021-025-026-031-251500-
SOUTHWEST ARIZONA

CITY           SKY/WX    TMP DP  RH WIND       PRES   REMARKS
YUMA           PTCLDY    55  24  30 N9        30.06R
$$

CAZ031-033-041-043-047-048-061-251500-
SOUTHERN CALIFORNIA

CITY           SKY/WX    TMP DP  RH WIND       PRES   REMARKS
DOWNTOWN L.A.  CLEAR     50  35  56 CALM      30.02S
L.A. AIRPORT   CLEAR     52  34  50 CALM      30.03R
SAN DIEGO      CLOUDY    55  36  48 CALM      30.02R
BURBANK        CLEAR     51  26  37 CALM      30.03S
ONTARIO        CLEAR     72  20  14 NE17G24   30.02S
RIVERSIDE      CLEAR     55  23  28 NE7       30.06F
PALM SPRINGS   CLEAR     61  20  20 CALM      30.11R
EL CENTRO NAS  CLEAR     43  21  41 W7        30.06R
IMPERIAL       CLEAR     46  23  40 W7        30.06R
BLYTHE         CLEAR     52  26  36 E9        30.10R
$$

NVZ020-UTZ003-251500-
SOUTHERN NEVADA-UTAH

CITY           SKY/WX    TMP DP  RH WIND       PRES   REMARKS
LAS VEGAS      NOT AVBL
SALT LAKE CITY MOCLDY    33  28  81 SW3       30.46S
$$

NMZ009-TXZ055-251500-
NEW MEXICO-WEST TEXAS

CITY           SKY/WX    TMP DP  RH WIND       PRES   REMARKS
ALBUQUERQUE    PTCLDY    27  18  69 E3        30.29R
EL PASO        PTCLDY    31  25  78 N7        30.21R WCI  24
$$


........................KEY........................
SKY/WX - SKY CONDITION/WEATHER
TMP    - TEMPERATURE IN FAHRENHEIT
DP     - DEW POINT IN FAHRENHEIT
RH     - RELATIVE HUMIDITY IN PERCENT
WIND   - DIRECTION AND SPEED IN MILES PER HOUR (MPH)
VRB    - VARIABLE WIND DIRECTION
PRES   - MEAN SEA LEVEL PRESSURE IN INCHES OF MERCURY
         F - FALLING PRESSURE   R - RISING PRESSURE
         S - STEADY PRESSURE
VSB    - VISIBILITY IN MILES
HX     - HEAT INDEX IN FAHRENHEIT
WCI    - WIND CHILL INDEX IN FAHRENHEIT
TC     - TEMPERATURE IN CELSIUS WHICH IS ALSO KNOWN AS
         TEMPERATURE IN CENTIGRADE
AFB    - AIR FORCE BASE
         LUKE AFB IS LUKE AIR FORCE BASE
         DAVIS-MONTHAN IS DAVIS-MONTHAN AIR FORCE BASE
NAS    - NAVAL AIR STATION
         EL CENTRO NAS IS EL CENTRO NAVAL AIR STATION
N/A    - NOT AVAILABLE


USA.gov is the U.S. government's official web portal to all federal, state and local government web resources and services.